Year,Month,Day,Hour,Minute,Value (Times are PST for temperature in C)
2006,06,26,00,00,19.10
2006,06,26,00,01,19.10
2006,06,26,00,02,19.10
2006,06,26,00,03,19.10
2006,06,26,00,04,19.10
2006,06,26,00,05,19.00
2006,06,26,00,06,18.90
2006,06,26,00,07,18.90
2006,06,26,00,08,18.90
2006,06,26,00,09,18.80
2006,06,26,00,10,18.80
2006,06,26,00,11,18.70
2006,06,26,00,12,18.60
2006,06,26,00,13,18.60
2006,06,26,00,14,18.50
2006,06,26,00,15,18.50
2006,06,26,00,16,18.40
2006,06,26,00,17,18.40
2006,06,26,00,18,18.30
2006,06,26,00,19,18.30
2006,06,26,00,20,18.20
2006,06,26,00,21,18.20
2006,06,26,00,22,18.20
2006,06,26,00,23,18.20
2006,06,26,00,24,18.20
2006,06,26,00,25,18.10
2006,06,26,00,26,18.10
2006,06,26,00,27,18.10
2006,06,26,00,28,18.00
2006,06,26,00,29,17.90
2006,06,26,00,30,17.90
2006,06,26,00,31,17.90
2006,06,26,00,32,17.90
2006,06,26,00,33,17.90
2006,06,26,00,34,17.90
2006,06,26,00,35,17.90
2006,06,26,00,36,17.90
2006,06,26,00,37,17.90
2006,06,26,00,38,17.90
2006,06,26,00,39,17.90
2006,06,26,00,40,17.80
2006,06,26,00,41,17.80
2006,06,26,00,42,17.70
2006,06,26,00,43,17.70
2006,06,26,00,44,17.70
2006,06,26,00,45,17.70
2006,06,26,00,46,17.60
2006,06,26,00,47,17.60
2006,06,26,00,48,17.60
2006,06,26,00,49,17.60
2006,06,26,00,50,17.60
2006,06,26,00,51,17.50
2006,06,26,00,52,17.50
2006,06,26,00,53,17.50
2006,06,26,00,54,17.50
2006,06,26,00,55,17.40
2006,06,26,00,56,17.40
2006,06,26,00,57,17.40
2006,06,26,00,58,17.30
2006,06,26,00,59,17.30
2006,06,26,01,00,17.30
2006,06,26,01,01,17.30
2006,06,26,01,02,17.30
2006,06,26,01,03,17.30
2006,06,26,01,04,17.30
2006,06,26,01,05,17.30
2006,06,26,01,06,17.30
2006,06,26,01,07,17.30
2006,06,26,01,08,17.30
2006,06,26,01,09,17.30
2006,06,26,01,10,17.30
2006,06,26,01,11,17.20
2006,06,26,01,12,17.20
2006,06,26,01,13,17.20
2006,06,26,01,14,17.20
2006,06,26,01,15,17.10
2006,06,26,01,16,17.10
2006,06,26,01,17,17.10
2006,06,26,01,18,17.10
2006,06,26,01,19,17.10
2006,06,26,01,20,17.20
2006,06,26,01,21,17.20
2006,06,26,01,22,17.30
2006,06,26,01,23,17.30
2006,06,26,01,24,17.30
2006,06,26,01,25,17.40
2006,06,26,01,26,17.40
2006,06,26,01,27,17.50
2006,06,26,01,28,17.50
2006,06,26,01,29,17.50
2006,06,26,01,30,17.50
2006,06,26,01,31,17.50
2006,06,26,01,32,17.60
2006,06,26,01,33,17.60
2006,06,26,01,34,17.50
2006,06,26,01,35,17.50
2006,06,26,01,36,17.50
2006,06,26,01,37,17.50
2006,06,26,01,38,17.50
2006,06,26,01,39,17.50
2006,06,26,01,40,17.50
2006,06,26,01,41,17.50
2006,06,26,01,42,17.50
2006,06,26,01,43,17.50
2006,06,26,01,44,17.50
2006,06,26,01,45,17.50
2006,06,26,01,46,17.50
2006,06,26,01,47,17.50
2006,06,26,01,48,17.60
2006,06,26,01,49,17.60
2006,06,26,01,50,17.70
2006,06,26,01,51,17.70
2006,06,26,01,52,17.80
2006,06,26,01,53,17.80
2006,06,26,01,54,17.90
2006,06,26,01,55,17.90
2006,06,26,01,56,17.90
2006,06,26,01,57,18.00
2006,06,26,01,58,18.10
2006,06,26,01,59,18.20
2006,06,26,02,00,18.30
2006,06,26,02,01,18.40
2006,06,26,02,02,18.50
2006,06,26,02,03,18.60
2006,06,26,02,04,18.70
2006,06,26,02,05,18.80
2006,06,26,02,06,18.90
2006,06,26,02,07,18.90
2006,06,26,02,08,19.00
2006,06,26,02,09,19.10
2006,06,26,02,10,19.10
2006,06,26,02,11,19.20
2006,06,26,02,12,19.20
2006,06,26,02,13,19.30
2006,06,26,02,14,19.30
2006,06,26,02,15,19.30
2006,06,26,02,16,19.30
2006,06,26,02,17,19.30
2006,06,26,02,18,19.20
2006,06,26,02,19,19.20
2006,06,26,02,20,19.20
2006,06,26,02,21,19.20
2006,06,26,02,22,19.10
2006,06,26,02,23,19.10
2006,06,26,02,24,19.10
2006,06,26,02,25,19.10
2006,06,26,02,26,19.10
2006,06,26,02,27,19.10
2006,06,26,02,28,19.10
2006,06,26,02,29,19.10
2006,06,26,02,30,19.10
2006,06,26,02,31,19.10
2006,06,26,02,32,19.10
2006,06,26,02,33,19.10
2006,06,26,02,34,19.10
2006,06,26,02,35,19.10
2006,06,26,02,36,19.10
2006,06,26,02,37,19.10
2006,06,26,02,38,19.00
2006,06,26,02,39,18.90
2006,06,26,02,40,18.90
2006,06,26,02,41,19.00
2006,06,26,02,42,19.10
2006,06,26,02,43,19.10
2006,06,26,02,44,19.00
2006,06,26,02,45,18.90
2006,06,26,02,46,18.90
2006,06,26,02,47,18.80
2006,06,26,02,48,18.70
2006,06,26,02,49,18.70
2006,06,26,02,50,18.70
2006,06,26,02,51,18.60
2006,06,26,02,52,18.60
2006,06,26,02,53,18.50
2006,06,26,02,54,18.50
2006,06,26,02,55,18.50
2006,06,26,02,56,18.40
2006,06,26,02,57,18.30
2006,06,26,02,58,18.30
2006,06,26,02,59,18.30
2006,06,26,03,00,18.30
2006,06,26,03,01,18.30
2006,06,26,03,02,18.20
2006,06,26,03,03,18.20
2006,06,26,03,04,18.20
2006,06,26,03,05,18.20
2006,06,26,03,06,18.20
2006,06,26,03,07,18.20
2006,06,26,03,08,18.20
2006,06,26,03,09,18.20
2006,06,26,03,10,18.10
2006,06,26,03,11,18.10
2006,06,26,03,12,18.00
2006,06,26,03,13,17.90
2006,06,26,03,14,17.90
2006,06,26,03,15,17.90
2006,06,26,03,16,17.80
2006,06,26,03,17,17.80
2006,06,26,03,18,17.80
2006,06,26,03,19,17.70
2006,06,26,03,20,17.70
2006,06,26,03,21,17.70
2006,06,26,03,22,17.70
2006,06,26,03,23,17.60
2006,06,26,03,24,17.60
2006,06,26,03,25,17.50
2006,06,26,03,26,17.50
2006,06,26,03,27,17.40
2006,06,26,03,28,17.40
2006,06,26,03,29,17.40
2006,06,26,03,30,17.30
2006,06,26,03,31,17.30
2006,06,26,03,32,17.30
2006,06,26,03,33,17.30
2006,06,26,03,34,17.30
2006,06,26,03,35,17.20
2006,06,26,03,36,17.10
2006,06,26,03,37,17.10
2006,06,26,03,38,17.00
2006,06,26,03,39,16.90
2006,06,26,03,40,16.80
2006,06,26,03,41,16.80
2006,06,26,03,42,16.70
2006,06,26,03,43,16.70
2006,06,26,03,44,16.60
2006,06,26,03,45,16.60
2006,06,26,03,46,16.60
2006,06,26,03,47,16.50
2006,06,26,03,48,16.40
2006,06,26,03,49,16.40
2006,06,26,03,50,16.40
2006,06,26,03,51,16.40
2006,06,26,03,52,16.40
2006,06,26,03,53,16.30
2006,06,26,03,54,16.30
2006,06,26,03,55,16.30
2006,06,26,03,56,16.20
2006,06,26,03,57,16.20
2006,06,26,03,58,16.10
2006,06,26,03,59,16.10
2006,06,26,04,00,16.10
2006,06,26,04,01,16.10
2006,06,26,04,02,16.00
2006,06,26,04,03,15.90
2006,06,26,04,04,15.90
2006,06,26,04,05,15.80
2006,06,26,04,06,15.80
2006,06,26,04,07,15.80
2006,06,26,04,08,15.80
2006,06,26,04,09,15.80
2006,06,26,04,10,15.80
2006,06,26,04,11,15.70
2006,06,26,04,12,15.70
2006,06,26,04,13,15.70
2006,06,26,04,14,15.70
2006,06,26,04,15,15.70
2006,06,26,04,16,15.70
2006,06,26,04,17,15.60
2006,06,26,04,18,15.60
2006,06,26,04,19,15.60
2006,06,26,04,20,15.60
2006,06,26,04,21,15.60
2006,06,26,04,22,15.60
2006,06,26,04,23,15.60
2006,06,26,04,24,15.50
2006,06,26,04,25,15.50
2006,06,26,04,26,15.40
2006,06,26,04,27,15.40
2006,06,26,04,28,15.30
2006,06,26,04,29,15.30
2006,06,26,04,30,15.30
2006,06,26,04,31,15.30
2006,06,26,04,32,15.20
2006,06,26,04,33,15.20
2006,06,26,04,34,15.10
2006,06,26,04,35,15.10
2006,06,26,04,36,15.00
2006,06,26,04,37,15.00
2006,06,26,04,38,15.00
2006,06,26,04,39,14.90
2006,06,26,04,40,14.90
2006,06,26,04,41,14.90
2006,06,26,04,42,14.80
2006,06,26,04,43,14.80
2006,06,26,04,44,14.80
2006,06,26,04,45,14.80
2006,06,26,04,46,14.80
2006,06,26,04,47,14.80
2006,06,26,04,48,14.80
2006,06,26,04,49,14.80
2006,06,26,04,50,14.80
2006,06,26,04,51,14.80
2006,06,26,04,52,14.80
2006,06,26,04,53,14.70
2006,06,26,04,54,14.70
2006,06,26,04,55,14.60
2006,06,26,04,56,14.60
2006,06,26,04,57,14.50
2006,06,26,04,58,14.50
2006,06,26,04,59,14.40
2006,06,26,05,00,14.40
2006,06,26,05,01,14.30
2006,06,26,05,02,14.30
2006,06,26,05,03,14.30
2006,06,26,05,04,14.20
2006,06,26,05,05,14.20
2006,06,26,05,06,14.20
2006,06,26,05,07,14.20
2006,06,26,05,08,14.20
2006,06,26,05,09,14.20
2006,06,26,05,10,14.20
2006,06,26,05,11,14.20
2006,06,26,05,12,14.20
2006,06,26,05,13,14.20
2006,06,26,05,14,14.20
2006,06,26,05,15,14.10
2006,06,26,05,16,14.10
2006,06,26,05,17,14.00
2006,06,26,05,18,14.00
2006,06,26,05,19,14.00
2006,06,26,05,20,14.00
2006,06,26,05,21,13.90
2006,06,26,05,22,13.90
2006,06,26,05,23,13.90
2006,06,26,05,24,13.90
2006,06,26,05,25,13.90
2006,06,26,05,26,13.90
2006,06,26,05,27,13.90
2006,06,26,05,28,13.90
2006,06,26,05,29,13.90
2006,06,26,05,30,13.90
2006,06,26,05,31,14.00
2006,06,26,05,32,14.00
2006,06,26,05,33,14.10
2006,06,26,05,34,14.10
2006,06,26,05,35,14.20
2006,06,26,05,36,14.20
2006,06,26,05,37,14.20
2006,06,26,05,38,14.30
2006,06,26,05,39,14.30
2006,06,26,05,40,14.30
2006,06,26,05,41,14.40
2006,06,26,05,42,14.40
2006,06,26,05,43,14.50
2006,06,26,05,44,14.50
2006,06,26,05,45,14.50
2006,06,26,05,46,14.60
2006,06,26,05,47,14.60
2006,06,26,05,48,14.60
2006,06,26,05,49,14.70
2006,06,26,05,50,14.70
2006,06,26,05,51,14.80
2006,06,26,05,52,14.80
2006,06,26,05,53,14.90
2006,06,26,05,54,14.90
2006,06,26,05,55,15.00
2006,06,26,05,56,15.00
2006,06,26,05,57,15.00
2006,06,26,05,58,15.00
2006,06,26,05,59,15.10
2006,06,26,06,00,15.10
2006,06,26,06,01,15.10
2006,06,26,06,02,15.20
2006,06,26,06,03,15.20
2006,06,26,06,04,15.20
2006,06,26,06,05,15.30
2006,06,26,06,06,15.30
2006,06,26,06,07,15.30
2006,06,26,06,08,15.40
2006,06,26,06,09,15.40
2006,06,26,06,10,15.50
2006,06,26,06,11,15.50
2006,06,26,06,12,15.60
2006,06,26,06,13,15.60
2006,06,26,06,14,15.70
2006,06,26,06,15,15.70
2006,06,26,06,16,15.80
2006,06,26,06,17,15.80
2006,06,26,06,18,15.80
2006,06,26,06,19,15.90
2006,06,26,06,20,16.00
2006,06,26,06,21,16.10
2006,06,26,06,22,16.10
2006,06,26,06,23,16.20
2006,06,26,06,24,16.30
2006,06,26,06,25,16.30
2006,06,26,06,26,16.30
2006,06,26,06,27,16.40
2006,06,26,06,28,16.40
2006,06,26,06,29,16.40
2006,06,26,06,30,16.40
2006,06,26,06,31,16.40
2006,06,26,06,32,16.50
2006,06,26,06,33,16.60
2006,06,26,06,34,16.70
2006,06,26,06,35,16.70
2006,06,26,06,36,16.70
2006,06,26,06,37,16.80
2006,06,26,06,38,16.90
2006,06,26,06,39,17.00
2006,06,26,06,40,17.00
2006,06,26,06,41,17.20
2006,06,26,06,42,17.30
2006,06,26,06,43,17.30
2006,06,26,06,44,17.40
2006,06,26,06,45,17.50
2006,06,26,06,46,17.50
2006,06,26,06,47,17.60
2006,06,26,06,48,17.70
2006,06,26,06,49,17.80
2006,06,26,06,50,17.90
2006,06,26,06,51,18.00
2006,06,26,06,52,18.10
2006,06,26,06,53,18.30
2006,06,26,06,54,18.40
2006,06,26,06,55,18.50
2006,06,26,06,56,18.60
2006,06,26,06,57,18.60
2006,06,26,06,58,18.70
2006,06,26,06,59,18.80
2006,06,26,07,00,18.90
2006,06,26,07,01,18.90
2006,06,26,07,02,19.10
2006,06,26,07,03,19.10
2006,06,26,07,04,19.10
2006,06,26,07,05,19.10
2006,06,26,07,06,19.10
2006,06,26,07,07,19.20
2006,06,26,07,08,19.30
2006,06,26,07,09,19.30
2006,06,26,07,10,19.40
2006,06,26,07,11,19.40
2006,06,26,07,12,19.50
2006,06,26,07,13,19.50
2006,06,26,07,14,19.50
2006,06,26,07,15,19.50
2006,06,26,07,16,19.50
2006,06,26,07,17,19.50
2006,06,26,07,18,19.50
2006,06,26,07,19,19.50
2006,06,26,07,20,19.50
2006,06,26,07,21,19.50
2006,06,26,07,22,19.60
2006,06,26,07,23,19.60
2006,06,26,07,24,19.60
2006,06,26,07,25,19.60
2006,06,26,07,26,19.60
2006,06,26,07,27,19.70
2006,06,26,07,28,19.80
2006,06,26,07,29,19.90
2006,06,26,07,30,19.90
2006,06,26,07,31,20.10
2006,06,26,07,32,20.30
2006,06,26,07,33,20.40
2006,06,26,07,34,20.50
2006,06,26,07,35,20.60
2006,06,26,07,36,20.70
2006,06,26,07,37,20.90
2006,06,26,07,38,21.00
2006,06,26,07,39,21.20
2006,06,26,07,40,21.30
2006,06,26,07,41,21.50
2006,06,26,07,42,21.60
2006,06,26,07,43,21.70
2006,06,26,07,44,21.80
2006,06,26,07,45,21.90
2006,06,26,07,46,22.10
2006,06,26,07,47,22.20
2006,06,26,07,48,22.30
2006,06,26,07,49,22.30
2006,06,26,07,50,22.30
2006,06,26,07,51,22.40
2006,06,26,07,52,22.50
2006,06,26,07,53,22.60
2006,06,26,07,54,22.60
2006,06,26,07,55,22.70
2006,06,26,07,56,22.80
2006,06,26,07,57,22.80
2006,06,26,07,58,22.90
2006,06,26,07,59,23.00
2006,06,26,08,00,23.10
2006,06,26,08,01,23.20
2006,06,26,08,02,23.20
2006,06,26,08,03,23.20
2006,06,26,08,04,23.20
2006,06,26,08,05,23.30
2006,06,26,08,06,23.30
2006,06,26,08,07,23.30
2006,06,26,08,08,23.30
2006,06,26,08,09,23.40
2006,06,26,08,10,23.40
2006,06,26,08,11,23.40
2006,06,26,08,12,23.40
2006,06,26,08,13,23.40
2006,06,26,08,14,23.40
2006,06,26,08,15,23.40
2006,06,26,08,16,23.40
2006,06,26,08,17,23.50
2006,06,26,08,18,23.60
2006,06,26,08,19,23.60
2006,06,26,08,20,23.60
2006,06,26,08,21,23.60
2006,06,26,08,22,23.60
2006,06,26,08,23,23.70
2006,06,26,08,24,23.70
2006,06,26,08,25,23.70
2006,06,26,08,26,23.90
2006,06,26,08,27,23.90
2006,06,26,08,28,23.90
2006,06,26,08,29,24.00
2006,06,26,08,30,24.10
2006,06,26,08,31,24.20
2006,06,26,08,32,24.20
2006,06,26,08,33,24.20
2006,06,26,08,34,24.20
2006,06,26,08,35,24.20
2006,06,26,08,36,24.20
2006,06,26,08,37,24.30
2006,06,26,08,38,24.30
2006,06,26,08,39,24.50
2006,06,26,08,40,24.70
2006,06,26,08,41,24.80
2006,06,26,08,42,24.90
2006,06,26,08,43,24.90
2006,06,26,08,44,24.90
2006,06,26,08,45,24.90
2006,06,26,08,46,25.10
2006,06,26,08,47,25.20
2006,06,26,08,48,25.30
2006,06,26,08,49,25.30
2006,06,26,08,50,25.30
2006,06,26,08,51,25.30
2006,06,26,08,52,25.40
2006,06,26,08,53,25.40
2006,06,26,08,54,25.50
2006,06,26,08,55,25.60
2006,06,26,08,56,25.60
2006,06,26,08,57,25.70
2006,06,26,08,58,25.70
2006,06,26,08,59,25.70
2006,06,26,09,00,25.70
2006,06,26,09,01,25.70
2006,06,26,09,02,25.70
2006,06,26,09,03,25.80
2006,06,26,09,04,25.80
2006,06,26,09,05,25.90
2006,06,26,09,06,25.90
2006,06,26,09,07,25.80
2006,06,26,09,08,25.80
2006,06,26,09,09,25.90
2006,06,26,09,10,25.90
2006,06,26,09,11,25.80
2006,06,26,09,12,25.90
2006,06,26,09,13,25.90
2006,06,26,09,14,25.90
2006,06,26,09,15,25.90
2006,06,26,09,16,25.80
2006,06,26,09,17,25.80
2006,06,26,09,18,25.80
2006,06,26,09,19,25.90
2006,06,26,09,20,25.90
2006,06,26,09,21,26.00
2006,06,26,09,22,26.00
2006,06,26,09,23,26.00
2006,06,26,09,24,26.10
2006,06,26,09,25,26.10
2006,06,26,09,26,26.10
2006,06,26,09,27,26.00
2006,06,26,09,28,26.00
2006,06,26,09,29,26.00
2006,06,26,09,30,26.10
2006,06,26,09,31,26.10
2006,06,26,09,32,26.30
2006,06,26,09,33,26.40
2006,06,26,09,34,26.50
2006,06,26,09,35,26.60
2006,06,26,09,36,26.60
2006,06,26,09,37,26.60
2006,06,26,09,38,26.50
2006,06,26,09,39,26.40
2006,06,26,09,40,26.40
2006,06,26,09,41,26.50
2006,06,26,09,42,26.60
2006,06,26,09,43,26.50
2006,06,26,09,44,26.30
2006,06,26,09,45,26.20
2006,06,26,09,46,26.00
2006,06,26,09,47,26.00
2006,06,26,09,48,26.00
2006,06,26,09,49,25.80
2006,06,26,09,50,25.70
2006,06,26,09,51,25.50
2006,06,26,09,52,25.40
2006,06,26,09,53,25.30
2006,06,26,09,54,25.30
2006,06,26,09,55,25.30
2006,06,26,09,56,25.30
2006,06,26,09,57,25.20
2006,06,26,09,58,25.20
2006,06,26,09,59,25.20
2006,06,26,10,00,25.30
2006,06,26,10,01,25.40
2006,06,26,10,02,25.40
2006,06,26,10,03,25.50
2006,06,26,10,04,25.60
2006,06,26,10,05,25.60
2006,06,26,10,06,25.70
2006,06,26,10,07,25.80
2006,06,26,10,08,25.80
2006,06,26,10,09,25.80
2006,06,26,10,10,25.80
2006,06,26,10,11,25.70
2006,06,26,10,12,25.60
2006,06,26,10,13,25.60
2006,06,26,10,14,25.60
2006,06,26,10,15,25.70
2006,06,26,10,16,25.80
2006,06,26,10,17,25.80
2006,06,26,10,18,25.80
2006,06,26,10,19,25.80
2006,06,26,10,20,25.80
2006,06,26,10,21,25.90
2006,06,26,10,22,25.90
2006,06,26,10,23,25.90
2006,06,26,10,24,26.00
2006,06,26,10,25,25.90
2006,06,26,10,26,25.80
2006,06,26,10,27,25.80
2006,06,26,10,28,25.80
2006,06,26,10,29,25.80
2006,06,26,10,30,25.80
2006,06,26,10,31,25.80
2006,06,26,10,32,25.80
2006,06,26,10,33,25.90
2006,06,26,10,34,25.80
2006,06,26,10,35,25.60
2006,06,26,10,36,25.60
2006,06,26,10,37,25.60
2006,06,26,10,38,25.70
2006,06,26,10,39,25.80
2006,06,26,10,40,26.00
2006,06,26,10,41,26.10
2006,06,26,10,42,26.10
2006,06,26,10,43,26.10
2006,06,26,10,44,26.20
2006,06,26,10,45,26.30
2006,06,26,10,46,26.70
2006,06,26,10,47,26.80
2006,06,26,10,48,26.90
2006,06,26,10,49,27.00
2006,06,26,10,50,27.10
2006,06,26,10,51,27.10
2006,06,26,10,52,27.00
2006,06,26,10,53,26.90
2006,06,26,10,54,26.90
2006,06,26,10,55,26.90
2006,06,26,10,56,26.90
2006,06,26,10,57,26.90
2006,06,26,10,58,27.00
2006,06,26,10,59,27.10
2006,06,26,11,00,27.10
2006,06,26,11,01,26.90
2006,06,26,11,02,26.90
2006,06,26,11,03,26.90
2006,06,26,11,04,26.90
2006,06,26,11,05,26.90
2006,06,26,11,06,27.00
2006,06,26,11,07,27.00
2006,06,26,11,08,26.90
2006,06,26,11,09,26.80
2006,06,26,11,10,26.80
2006,06,26,11,11,26.80
2006,06,26,11,12,26.80
2006,06,26,11,13,26.90
2006,06,26,11,14,26.90
2006,06,26,11,15,26.80
2006,06,26,11,16,26.80
2006,06,26,11,17,26.70
2006,06,26,11,18,26.70
2006,06,26,11,19,26.80
2006,06,26,11,20,26.90
2006,06,26,11,21,26.90
2006,06,26,11,22,26.80
2006,06,26,11,23,26.80
2006,06,26,11,24,26.70
2006,06,26,11,25,26.80
2006,06,26,11,26,26.80
2006,06,26,11,27,26.80
2006,06,26,11,28,26.90
2006,06,26,11,29,27.00
2006,06,26,11,30,27.10
2006,06,26,11,31,27.10
2006,06,26,11,32,27.10
2006,06,26,11,33,27.20
2006,06,26,11,34,27.40
2006,06,26,11,35,27.40
2006,06,26,11,36,27.40
2006,06,26,11,37,27.30
2006,06,26,11,38,27.30
2006,06,26,11,39,27.50
2006,06,26,11,40,27.70
2006,06,26,11,41,27.70
2006,06,26,11,42,27.90
2006,06,26,11,43,28.00
2006,06,26,11,44,28.10
2006,06,26,11,45,28.10
2006,06,26,11,46,28.00
2006,06,26,11,47,27.90
2006,06,26,11,48,27.80
2006,06,26,11,49,27.90
2006,06,26,11,50,28.00
2006,06,26,11,51,28.00
2006,06,26,11,52,28.00
2006,06,26,11,53,28.00
2006,06,26,11,54,28.00
2006,06,26,11,55,28.10
2006,06,26,11,56,28.10
2006,06,26,11,57,28.30
2006,06,26,11,58,28.40
2006,06,26,11,59,28.60
2006,06,26,12,00,28.80
2006,06,26,12,01,28.90
2006,06,26,12,02,29.20
2006,06,26,12,03,29.30
2006,06,26,12,04,29.20
2006,06,26,12,05,29.00
2006,06,26,12,06,28.90
2006,06,26,12,07,28.80
2006,06,26,12,08,28.60
2006,06,26,12,09,28.50
2006,06,26,12,10,28.40
2006,06,26,12,11,28.50
2006,06,26,12,12,28.60
2006,06,26,12,13,28.70
2006,06,26,12,14,28.70
2006,06,26,12,15,28.90
2006,06,26,12,16,28.90
2006,06,26,12,17,28.90
2006,06,26,12,18,28.80
2006,06,26,12,19,28.80
2006,06,26,12,20,28.80
2006,06,26,12,21,28.80
2006,06,26,12,22,28.80
2006,06,26,12,23,28.80
2006,06,26,12,24,28.70
2006,06,26,12,25,28.60
2006,06,26,12,26,28.60
2006,06,26,12,27,28.60
2006,06,26,12,28,28.80
2006,06,26,12,29,28.90
2006,06,26,12,30,28.90
2006,06,26,12,31,28.90
2006,06,26,12,32,29.00
2006,06,26,12,33,29.00
2006,06,26,12,34,29.10
2006,06,26,12,35,29.10
2006,06,26,12,36,29.10
2006,06,26,12,37,29.00
2006,06,26,12,38,28.90
2006,06,26,12,39,28.90
2006,06,26,12,40,28.70
2006,06,26,12,41,28.70
2006,06,26,12,42,28.70
2006,06,26,12,43,28.70
2006,06,26,12,44,28.70
2006,06,26,12,45,28.90
2006,06,26,12,46,28.90
2006,06,26,12,47,28.80
2006,06,26,12,48,28.80
2006,06,26,12,49,28.80
2006,06,26,12,50,28.70
2006,06,26,12,51,28.60
2006,06,26,12,52,28.50
2006,06,26,12,53,28.40
2006,06,26,12,54,28.50
2006,06,26,12,55,28.70
2006,06,26,12,56,28.70
2006,06,26,12,57,28.80
2006,06,26,12,58,28.90
2006,06,26,12,59,29.00
2006,06,26,13,00,29.20
2006,06,26,13,01,29.20
2006,06,26,13,02,29.30
2006,06,26,13,03,29.40
2006,06,26,13,04,29.20
2006,06,26,13,05,29.20
2006,06,26,13,06,29.20
2006,06,26,13,07,29.20
2006,06,26,13,08,29.20
2006,06,26,13,09,29.20
2006,06,26,13,10,29.10
2006,06,26,13,11,29.10
2006,06,26,13,12,29.00
2006,06,26,13,13,29.00
2006,06,26,13,14,29.10
2006,06,26,13,15,29.10
2006,06,26,13,16,29.20
2006,06,26,13,17,29.20
2006,06,26,13,18,29.30
2006,06,26,13,19,29.30
2006,06,26,13,20,29.30
2006,06,26,13,21,29.20
2006,06,26,13,22,29.10
2006,06,26,13,23,29.00
2006,06,26,13,24,28.90
2006,06,26,13,25,29.00
2006,06,26,13,26,29.00
2006,06,26,13,27,29.10
2006,06,26,13,28,29.10
2006,06,26,13,29,29.30
2006,06,26,13,30,29.10
2006,06,26,13,31,29.10
2006,06,26,13,32,29.20
2006,06,26,13,33,29.30
2006,06,26,13,34,29.50
2006,06,26,13,35,29.40
2006,06,26,13,36,29.40
2006,06,26,13,37,29.50
2006,06,26,13,38,29.60
2006,06,26,13,39,29.60
2006,06,26,13,40,29.60
2006,06,26,13,41,29.50
2006,06,26,13,42,29.50
2006,06,26,13,43,29.40
2006,06,26,13,44,29.30
2006,06,26,13,45,29.30
2006,06,26,13,46,29.20
2006,06,26,13,47,29.10
2006,06,26,13,48,28.90
2006,06,26,13,49,28.70
2006,06,26,13,50,28.70
2006,06,26,13,51,28.70
2006,06,26,13,52,28.60
2006,06,26,13,53,28.70
2006,06,26,13,54,28.90
2006,06,26,13,55,29.10
2006,06,26,13,56,29.20
2006,06,26,13,57,29.20
2006,06,26,13,58,29.20
2006,06,26,13,59,29.20
2006,06,26,14,00,29.20
2006,06,26,14,01,29.20
2006,06,26,14,02,29.30
2006,06,26,14,03,29.50
2006,06,26,14,04,29.60
2006,06,26,14,05,29.60
2006,06,26,14,06,29.70
2006,06,26,14,07,29.60
2006,06,26,14,08,29.60
2006,06,26,14,09,29.60
2006,06,26,14,10,29.60
2006,06,26,14,11,29.50
2006,06,26,14,12,29.60
2006,06,26,14,13,29.60
2006,06,26,14,14,29.50
2006,06,26,14,15,29.60
2006,06,26,14,16,29.50
2006,06,26,14,17,29.50
2006,06,26,14,18,29.50
2006,06,26,14,19,29.50
2006,06,26,14,20,29.50
2006,06,26,14,21,29.70
2006,06,26,14,22,29.80
2006,06,26,14,23,29.70
2006,06,26,14,24,29.50
2006,06,26,14,25,29.40
2006,06,26,14,26,29.40
2006,06,26,14,27,29.50
2006,06,26,14,28,29.70
2006,06,26,14,29,29.60
2006,06,26,14,30,29.70
2006,06,26,14,31,29.80
2006,06,26,14,32,30.00
2006,06,26,14,33,30.10
2006,06,26,14,34,30.30
2006,06,26,14,35,30.10
2006,06,26,14,36,29.90
2006,06,26,14,37,29.80
2006,06,26,14,38,29.80
2006,06,26,14,39,29.80
2006,06,26,14,40,29.80
2006,06,26,14,41,29.90
2006,06,26,14,42,30.10
2006,06,26,14,43,30.30
2006,06,26,14,44,30.30
2006,06,26,14,45,30.20
2006,06,26,14,46,30.30
2006,06,26,14,47,30.40
2006,06,26,14,48,30.30
2006,06,26,14,49,30.30
2006,06,26,14,50,30.40
2006,06,26,14,51,30.40
2006,06,26,14,52,30.40
2006,06,26,14,53,30.40
2006,06,26,14,54,30.30
2006,06,26,14,55,30.10
2006,06,26,14,56,30.00
2006,06,26,14,57,29.90
2006,06,26,14,58,29.60
2006,06,26,14,59,29.60
2006,06,26,15,00,29.60
2006,06,26,15,01,29.60
2006,06,26,15,02,29.80
2006,06,26,15,03,30.00
2006,06,26,15,04,30.00
2006,06,26,15,05,29.90
2006,06,26,15,06,29.80
2006,06,26,15,07,29.70
2006,06,26,15,08,29.60
2006,06,26,15,09,29.60
2006,06,26,15,10,29.60
2006,06,26,15,11,29.70
2006,06,26,15,12,29.60
2006,06,26,15,13,29.60
2006,06,26,15,14,29.70
2006,06,26,15,15,29.90
2006,06,26,15,16,30.00
2006,06,26,15,17,30.20
2006,06,26,15,18,30.40
2006,06,26,15,19,30.40
2006,06,26,15,20,30.40
2006,06,26,15,21,30.50
2006,06,26,15,22,30.40
2006,06,26,15,23,30.40
2006,06,26,15,24,30.40
2006,06,26,15,25,30.40
2006,06,26,15,26,30.30
2006,06,26,15,27,30.30
2006,06,26,15,28,30.30
2006,06,26,15,29,30.50
2006,06,26,15,30,30.70
2006,06,26,15,31,30.80
2006,06,26,15,32,31.00
2006,06,26,15,33,31.10
2006,06,26,15,34,31.10
2006,06,26,15,35,31.10
2006,06,26,15,36,31.30
2006,06,26,15,37,31.30
2006,06,26,15,38,31.20
2006,06,26,15,39,31.00
2006,06,26,15,40,30.70
2006,06,26,15,41,30.20
2006,06,26,15,42,29.90
2006,06,26,15,43,29.40
2006,06,26,15,44,29.20
2006,06,26,15,45,28.90
2006,06,26,15,46,28.70
2006,06,26,15,47,28.60
2006,06,26,15,48,28.60
2006,06,26,15,49,28.50
2006,06,26,15,50,28.50
2006,06,26,15,51,28.60
2006,06,26,15,52,28.70
2006,06,26,15,53,28.80
2006,06,26,15,54,28.70
2006,06,26,15,55,28.60
2006,06,26,15,56,28.60
2006,06,26,15,57,28.60
2006,06,26,15,58,28.60
2006,06,26,15,59,28.60
2006,06,26,16,00,28.70
2006,06,26,16,01,28.80
2006,06,26,16,02,28.90
2006,06,26,16,03,29.00
2006,06,26,16,04,29.10
2006,06,26,16,05,29.20
2006,06,26,16,06,29.20
2006,06,26,16,07,29.20
2006,06,26,16,08,29.10
2006,06,26,16,09,29.10
2006,06,26,16,10,29.10
2006,06,26,16,11,29.10
2006,06,26,16,12,29.00
2006,06,26,16,13,28.90
2006,06,26,16,14,28.90
2006,06,26,16,15,28.90
2006,06,26,16,16,28.90
2006,06,26,16,17,28.90
2006,06,26,16,18,28.90
2006,06,26,16,19,28.80
2006,06,26,16,20,28.70
2006,06,26,16,21,28.70
2006,06,26,16,22,28.70
2006,06,26,16,23,28.70
2006,06,26,16,24,28.70
2006,06,26,16,25,28.80
2006,06,26,16,26,28.90
2006,06,26,16,27,28.90
2006,06,26,16,28,29.00
2006,06,26,16,29,29.10
2006,06,26,16,30,29.10
2006,06,26,16,31,29.10
2006,06,26,16,32,29.10
2006,06,26,16,33,29.10
2006,06,26,16,34,29.10
2006,06,26,16,35,29.20
2006,06,26,16,36,29.30
2006,06,26,16,37,29.30
2006,06,26,16,38,29.40
2006,06,26,16,39,29.50
2006,06,26,16,40,29.60
2006,06,26,16,41,29.60
2006,06,26,16,42,29.60
2006,06,26,16,43,29.60
2006,06,26,16,44,29.50
2006,06,26,16,45,29.40
2006,06,26,16,46,29.30
2006,06,26,16,47,29.30
2006,06,26,16,48,29.30
2006,06,26,16,49,29.30
2006,06,26,16,50,29.30
2006,06,26,16,51,29.30
2006,06,26,16,52,29.40
2006,06,26,16,53,29.40
2006,06,26,16,54,29.40
2006,06,26,16,55,29.40
2006,06,26,16,56,29.40
2006,06,26,16,57,29.50
2006,06,26,16,58,29.60
2006,06,26,16,59,29.60
2006,06,26,17,00,29.60
2006,06,26,17,01,29.60
2006,06,26,17,02,29.60
2006,06,26,17,03,29.50
2006,06,26,17,04,29.50
2006,06,26,17,05,29.50
2006,06,26,17,06,29.40
2006,06,26,17,07,29.50
2006,06,26,17,08,29.50
2006,06,26,17,09,29.50
2006,06,26,17,10,29.70
2006,06,26,17,11,29.80
2006,06,26,17,12,29.90
2006,06,26,17,13,30.00
2006,06,26,17,14,30.10
2006,06,26,17,15,30.10
2006,06,26,17,16,30.10
2006,06,26,17,17,30.10
2006,06,26,17,18,30.10
2006,06,26,17,19,29.90